Date String (YYYY-MM-DD hh:mm:ss) UTC,Instrument flags,Ambient pressure (hPa),Sample flow (lpm),Bypass flow (lpm),Sample temperature (°C),Ambient temperature (°C),ASC tube jacket temperature (°C),LED temperature (°C),Box temperature (°C),Sample RH (%),Span deviation,Mass concentration (μg/m³),Mass concentration (μg/m³),Mass concentration (μg/m³)
DateTimeUTC,F1_M11,P_M11,Q1_M11,Q2_M11,T1_M11,T2_M11,T3_M11,T4_M11,T5_M11,U1_M11,ZSPAN_M11,X2_M11,X0_M11,X1_M11
2021-12-02 00:00:00,,0829.0,4.99,0.00,29.9,28.7,00.0,38.8,31.6,10.4,0000.0,0000.64,0002.99,0000.32
2021-12-02 00:01:00,,0828.9,5.00,0.00,29.9,28.8,00.0,38.8,31.7,10.5,0000.0,0000.68,0004.17,0000.33
2021-12-02 00:02:00,,0829.0,5.00,0.00,29.9,28.9,00.0,38.8,31.7,10.5,0000.0,0000.74,0005.49,0000.34
2021-12-02 00:03:00,,0829.0,5.00,0.00,29.9,28.9,00.0,38.8,31.7,10.5,0000.0,0000.74,0005.27,0000.34
2021-12-02 00:04:00,,0829.1,5.00,0.00,29.9,28.9,00.0,38.9,31.7,10.5,0000.0,0000.80,0005.39,0000.34
2021-12-02 00:05:00,,0828.9,4.99,0.00,29.9,29.0,00.0,38.9,31.7,10.4,0000.0,0000.82,0005.53,0000.35
2021-12-02 00:06:00,,0828.9,5.01,0.00,29.9,29.0,00.0,38.9,31.7,10.4,0000.0,0000.82,0005.20,0000.35
2021-12-02 00:07:00,,0828.9,4.99,0.00,30.0,29.0,00.0,38.9,31.7,10.5,0000.0,0000.83,0004.36,0000.36
2021-12-02 00:08:00,,0828.8,5.01,0.00,30.0,29.1,00.0,38.9,31.8,10.5,0000.0,0000.87,0004.47,0000.36
2021-12-02 00:09:00,,0829.0,4.99,0.00,30.0,29.1,00.0,38.9,31.8,10.5,0000.0,0000.91,0004.61,0000.36
2021-12-02 00:10:00,,0828.8,5.00,0.00,30.0,29.1,00.0,38.9,31.8,10.5,0000.0,0000.93,0006.01,0000.37
2021-12-02 00:11:00,,0828.9,5.01,0.00,30.0,29.1,00.0,38.9,31.8,10.3,0000.0,0000.92,0006.12,0000.36
2021-12-02 00:12:00,,0828.8,4.99,0.00,30.1,29.2,00.0,39.0,31.9,10.3,0000.0,0000.87,0005.39,0000.36
2021-12-02 00:13:00,,0828.9,4.99,0.00,30.1,29.2,00.0,39.0,31.9,10.2,0000.0,0000.81,0005.14,0000.35
2021-12-02 00:14:00,,0828.8,5.00,0.00,30.1,29.2,00.0,39.0,31.9,10.4,0000.0,0000.82,0006.26,0000.35
2021-12-02 00:15:00,,0828.8,5.00,0.00,30.1,29.2,00.0,39.0,31.9,10.3,0000.0,0000.78,0006.69,0000.35
2021-12-02 00:16:00,,0829.1,5.01,0.00,30.1,29.2,00.0,39.0,31.8,10.4,0000.0,0000.76,0006.54,0000.35
2021-12-02 00:17:00,,0829.2,4.99,0.00,30.1,29.2,00.0,39.0,31.9,10.5,0000.0,0000.73,0006.51,0000.35
2021-12-02 00:18:00,,0828.9,5.01,0.00,30.1,29.2,00.0,39.0,31.9,10.5,0000.0,0000.70,0006.93,0000.35
2021-12-02 00:19:00,,0828.9,4.99,0.00,30.1,29.2,00.0,39.0,31.8,10.5,0000.0,0000.62,0007.72,0000.35
2021-12-02 00:20:00,,0828.8,5.01,0.00,30.0,27.9,00.0,39.0,31.4,10.6,0000.0,0000.57,0007.60,0000.34
2021-12-02 00:21:00,,0828.9,4.99,0.00,29.8,26.1,00.0,39.0,31.0,10.6,0000.0,0000.59,0006.58,0000.34
2021-12-02 00:22:00,,0829.2,5.00,0.00,29.7,26.1,00.0,38.9,31.0,10.6,0000.0,0000.61,0006.56,0000.35
2021-12-02 00:23:00,,0829.4,5.01,0.00,29.6,26.5,00.0,38.9,31.1,10.7,0000.0,0000.60,0006.18,0000.34
2021-12-02 00:24:00,,0829.3,4.99,0.00,29.6,26.9,00.0,38.8,31.1,10.7,0000.0,0000.61,0004.91,0000.35
2021-12-02 00:25:00,,0829.3,5.02,0.00,29.6,27.2,00.0,38.8,31.1,10.7,0000.0,0000.62,0003.87,0000.35
2021-12-02 00:26:00,,0828.8,5.00,0.00,29.6,27.5,00.0,38.7,31.1,10.6,0000.0,0000.63,0003.53,0000.35
2021-12-02 00:27:00,,0828.7,5.00,0.00,29.5,27.7,00.0,38.7,31.2,10.6,0000.0,0000.62,0003.53,0000.35
2021-12-02 00:28:00,,0829.0,5.01,0.00,29.5,27.9,00.0,38.7,31.2,10.7,0000.0,0000.63,0003.54,0000.35
2021-12-02 00:29:00,,0828.9,5.01,0.00,29.5,28.0,00.0,38.7,31.1,10.8,0000.0,0000.66,0002.90,0000.35
2021-12-02 00:30:00,,0828.9,5.00,0.00,29.5,28.1,00.0,38.6,31.1,10.7,0000.0,0000.68,0001.85,0000.35
2021-12-02 00:31:00,,0828.9,5.00,0.00,29.5,28.2,00.0,38.6,31.2,10.7,0000.0,0000.69,0001.83,0000.35
2021-12-02 00:32:00,,0828.9,5.00,0.00,29.5,28.3,00.0,38.6,31.2,10.7,0000.0,0000.66,0001.70,0000.35
2021-12-02 00:33:00,,0828.8,5.01,0.00,29.5,28.3,00.0,38.6,31.2,10.6,0000.0,0000.66,0002.12,0000.34
2021-12-02 00:34:00,,0828.8,5.00,0.00,29.4,28.3,00.0,38.6,31.2,10.6,0000.0,0000.66,0002.26,0000.34
2021-12-02 00:35:00,,0829.2,4.99,0.00,29.4,28.4,00.0,38.6,31.2,10.6,0000.0,0000.64,0002.27,0000.33
2021-12-02 00:36:00,,0829.0,5.01,0.00,29.4,28.4,00.0,38.6,31.1,10.6,0000.0,0000.61,0002.10,0000.33
2021-12-02 00:37:00,,0828.9,5.00,0.00,29.4,28.4,00.0,38.6,31.1,10.6,0000.0,0000.59,0002.04,0000.32
2021-12-02 00:38:00,,0828.8,5.00,0.00,29.4,28.4,00.0,38.5,31.1,10.5,0000.0,0000.58,0002.67,0000.32
2021-12-02 00:39:00,,0829.2,5.02,0.00,29.4,28.4,00.0,38.5,31.1,10.6,0000.0,0000.59,0002.92,0000.31
2021-12-02 00:40:00,,0828.8,4.99,0.00,29.4,28.4,00.0,38.5,31.1,10.6,0000.0,0000.56,0002.84,0000.31
2021-12-02 00:41:00,,0828.9,5.01,0.00,29.4,28.5,00.0,38.5,31.1,10.6,0000.0,0000.55,0002.80,0000.31
2021-12-02 00:42:00,,0828.8,4.98,0.00,29.4,28.5,00.0,38.5,31.1,10.6,0000.0,0000.53,0003.33,0000.31
2021-12-02 00:43:00,,0828.8,4.99,0.00,29.4,28.5,00.0,38.5,31.2,10.6,0000.0,0000.52,0003.35,0000.30
2021-12-02 00:44:00,,0828.8,5.00,0.00,29.4,28.5,00.0,38.5,31.1,10.6,0000.0,0000.52,0003.19,0000.31
2021-12-02 00:45:00,,0829.3,4.99,0.00,29.4,28.5,00.0,38.5,31.2,10.5,0000.0,0000.53,0003.35,0000.31
2021-12-02 00:46:00,,0829.3,5.01,0.00,29.4,28.5,00.0,38.5,31.2,10.5,0000.0,0000.57,0004.17,0000.31
2021-12-02 00:47:00,,0828.9,4.99,0.00,29.4,28.5,00.0,38.5,31.2,10.3,0000.0,0000.59,0004.70,0000.31
2021-12-02 00:48:00,,0828.8,5.00,0.00,29.4,28.6,00.0,38.5,31.2,10.3,0000.0,0000.63,0004.72,0000.31
2021-12-02 00:49:00,,0829.0,5.01,0.00,29.5,28.6,00.0,38.5,31.2,10.3,0000.0,0000.65,0004.06,0000.32
2021-12-02 00:50:00,,0828.6,5.00,0.00,29.5,28.7,00.0,38.5,31.3,10.2,0000.0,0000.65,0003.82,0000.33
2021-12-02 00:51:00,,0828.7,5.01,0.00,29.5,28.7,00.0,38.5,31.3,10.2,0000.0,0000.64,0003.79,0000.33
2021-12-02 00:52:00,,0829.1,5.01,0.00,29.6,28.8,00.0,38.5,31.4,10.1,0000.0,0000.68,0004.60,0000.34
2021-12-02 00:53:00,,0828.9,4.99,0.00,29.6,28.8,00.0,38.5,31.4,10.2,0000.0,0000.70,0004.85,0000.34
2021-12-02 00:54:00,,0828.7,5.01,0.00,29.6,28.8,00.0,38.5,31.4,10.0,0000.0,0000.68,0004.76,0000.34
2021-12-02 00:55:00,,0828.9,4.99,0.00,29.6,28.8,00.0,38.5,31.3,10.0,0000.0,0000.67,0004.48,0000.34
2021-12-02 00:56:00,,0828.9,5.02,0.00,29.6,28.8,00.0,38.6,31.3,09.9,0000.0,0000.67,0004.17,0000.34
2021-12-02 00:57:00,,0829.1,4.99,0.00,29.6,28.8,00.0,38.6,31.4,09.9,0000.0,0000.65,0003.38,0000.34
2021-12-02 00:58:00,,0828.8,5.01,0.00,29.6,28.8,00.0,38.6,31.4,09.9,0000.0,0000.64,0002.77,0000.34
2021-12-02 00:59:00,,0829.1,4.99,0.00,29.6,28.9,00.0,38.6,31.4,09.9,0000.0,0000.64,0002.97,0000.35
